This is the latest recevied weather packets stored in our database for station/object VK6WB. If no packets are shown the sender has not sent any weather packets the latest 10 day(s).
| Time | Temp. | Humidity | Pressure | Rain* | Wind** | Luminosity | Snow |
|---|---|---|---|---|---|---|---|
| 1777725005 | 12.78° C | 66% | 1021.1 hPa | 0 mm | - | 945 W/m² | - |
| 1777724405 | 12.78° C | 66% | 1021.1 hPa | 0 mm | - | 996 W/m² | - |
| 1777723805 | 13.33° C | 66% | 1021 hPa | 0 mm | - | 1048 W/m² | - |
| 1777723205 | 13.33° C | 65% | 1021 hPa | 0 mm | - | 1151 W/m² | - |
| 1777722604 | 13.89° C | 64% | 1020.8 hPa | 0 mm | - | 1254 W/m² | - |
| 1777722005 | 13.89° C | 63% | 1020.8 hPa | 0 mm | - | 1254 W/m² | - |
| 1777721405 | 14.44° C | 62% | 1020.9 hPa | 0 mm | - | 1150 W/m² | - |
| 1777720805 | 14.44° C | 61% | 1020.8 hPa | 0 mm | - | 1150 W/m² | - |
| 1777720204 | 15° C | 60% | 1020.7 hPa | 0 mm | - | 1098 W/m² | - |
| 1777719605 | 15° C | 58% | 1020.7 hPa | 0 mm | - | 1047 W/m² | - |
| 1777719005 | 15.56° C | 57% | 1020.7 hPa | 0 mm | - | 1047 W/m² | - |
| 1777718405 | 15.56° C | 56% | 1020.6 hPa | 0 mm | - | 995 W/m² | - |
| 1777717805 | 15.56° C | 55% | 1020.5 hPa | 0 mm | - | 943 W/m² | - |
| 1777717204 | 16.11° C | 53% | 1020.4 hPa | 0 mm | - | 891 W/m² | - |
| 1777716605 | 16.11° C | 52% | 1020.3 hPa | 0 mm | - | 891 W/m² | - |
| 1777716005 | 16.67° C | 51% | 1020.1 hPa | 0 mm | - | 839 W/m² | - |
| 1777715405 | 16.67° C | 50% | 1020 hPa | 0 mm | - | 788 W/m² | - |
| 1777714805 | 16.67° C | 50% | 1019.9 hPa | 0 mm | - | 788 W/m² | - |
| 1777714204 | 16.67° C | 49% | 1019.9 hPa | 0 mm | - | 788 W/m² | - |
| 1777713605 | 17.22° C | 47% | 1020 hPa | 0 mm | - | 736 W/m² | - |
| 1777713004 | 18.33° C | 45% | 1019.8 hPa | 0 mm | - | 736 W/m² | - |
| 1777712405 | 18.33° C | 45% | 1019.8 hPa | 0 mm | - | 736 W/m² | - |
| 1777711804 | 18.33° C | 45% | 1019.8 hPa | 0 mm | - | 736 W/m² | - |
| 1777711205 | 18.89° C | 41% | 1019.7 hPa | 0 mm | - | 736 W/m² | - |
| 1777710604 | 19.44° C | 40% | 1019.7 hPa | 0 mm | - | 736 W/m² | - |
* Rain latest hour (hover to see other rain measurements)
** Current wind speed in m/s (hover to see current wind gust speed)